Location: Augsburg
(48.3836°N, 10.8929°E)
Time: 08:50:01
(UTC+02:00)

ISS - Visible Passes

Search period start: 28 May 2017 00:00
Search period end: 07 June 2017 00:00
Orbit: 402 x 408 km, 51.6° (Epoch: 28 May)

Date Brightness Start Highest point End Pass type
(mag) Time Alt. Az. Time Alt. Az. Time Alt. Az.
28 May -2.7 00:06:39 10° WNW 00:09:51 45° N 00:13:02 10° ENE visible
28 May -3.8 01:43:17 10° WNW 01:46:36 78° NNE 01:47:25 47° E visible
28 May -2.8 23:14:29 10° W 23:17:42 47° N 23:20:55 10° ENE visible
29 May -3.3 00:51:15 10° WNW 00:54:31 59° NNE 00:56:01 28° E visible
29 May -1.6 02:27:50 10° WNW 02:28:37 16° W 02:28:37 16° W visible
29 May -3.0 22:22:18 10° W 22:25:33 55° NNW 22:28:49 10° ENE visible
29 May -2.9 23:59:09 10° WNW 00:02:22 49° N 00:05:08 13° E visible
30 May -2.7 01:35:42 10° WNW 01:37:45 34° W 01:37:45 34° W visible
30 May -2.7 23:07:01 10° WNW 23:10:13 45° N 23:13:25 10° ENE visible
31 May -3.9 00:43:37 10° WNW 00:46:56 88° NNE 00:47:05 80° E visible
31 May -2.7 22:14:49 10° W 22:18:02 46° N 22:21:14 10° ENE visible
31 May -3.5 23:51:32 10° WNW 23:54:49 65° NNE 23:56:30 26° E visible
01 Jun -1.6 01:28:11 10° W 01:29:07 16° W 01:29:07 16° W visible
01 Jun -3.0 22:59:25 10° WNW 23:02:39 52° N 23:05:54 10° E visible
02 Jun -3.2 00:35:58 10° WNW 00:38:36 44° WSW 00:38:36 44° WSW visible
02 Jun -2.8 22:07:16 10° WNW 22:10:28 46° N 22:13:40 10° E visible
02 Jun -4.0 23:43:50 10° WNW 23:47:09 81° SSW 23:48:06 43° ESE visible
03 Jun -3.6 22:51:43 10° WNW 22:55:01 72° NNE 22:57:39 15° ESE visible
04 Jun -2.1 00:28:27 10° W 00:30:17 23° WSW 00:30:17 23° WSW visible
04 Jun -3.2 21:59:34 10° WNW 22:02:50 55° NNE 22:06:05 10° E visible
04 Jun -3.4 23:36:08 10° WNW 23:39:18 44° SSW 23:39:51 40° S visible
05 Jun -3.8 22:43:56 10° WNW 22:47:14 70° SSW 22:49:26 19° SE visible
06 Jun -1.3 00:21:24 10° WSW 00:22:05 12° WSW 00:22:05 12° WSW visible
06 Jun -3.7 21:51:46 10° WNW 21:55:05 81° NNE 21:58:23 10° ESE visible
06 Jun -2.4 23:28:37 10° W 23:31:18 23° SW 23:31:42 22° SSW visible
